Location: Aiyekoto
(8.4333°N, 4.3667°E)
Time: 12:00:22
(UTC+00:00)

ADEOS - Pass Details

Date: 05 October 2020
Orbit: 792 x 794 km, 98.9° (Epoch: 27 October)

Event Time Altitude Azimuth Distance (km) Brightness Sun altitude
Rises 04:12:49 0° 2° (N) 3,279 6.8 -20.0°
Reaches altitude 10° 04:15:13 10° 357° (N) 2,351 6.0 -19.4°
Maximum altitude 04:20:11 47° 284° (WNW) 1,036 3.7 -18.2°
Drops below altitude 10° 04:25:09 10° 211° (SSW) 2,355 5.8 -16.9°
Sets 04:27:33 0° 205° (SSW) 3,285 6.6 -16.4°
